EN

Hourly Weather Bartniczka

Today, 17 January, Sunday

Time Temperature Precipitation Wind Pressure Humidity
00:00 -20°C° 0 mm 4 mps 755 mmHg 93%
01:00 -19°C° 0 mm 2 mps 755 mmHg 94%
02:00 -19°C° 0 mm 2 mps 756 mmHg 94%
03:00 -19°C° 0 mm 2 mps 756 mmHg 93%
04:00 -21°C° 0 mm 3 mps 756 mmHg 93%
05:00 -20°C° 0 mm 2 mps 756 mmHg 92%
06:00 -20°C° 0 mm 2 mps 757 mmHg 91%
07:00 -20°C° 0 mm 2 mps 757 mmHg 90%
08:00 -17°C° 0 mm 1 mps 757 mmHg 89%
09:00 -16°C° 0 mm 1 mps 758 mmHg 87%
10:00 -15°C° 0 mm 1 mps 758 mmHg 85%
11:00 -14°C° 0 mm 1 mps 758 mmHg 83%
12:00 -13°C° 0 mm 1 mps 759 mmHg 82%
13:00 -12°C° 0 mm 1 mps 759 mmHg 80%
14:00 -13°C° 0 mm 1 mps 759 mmHg 83%
15:00 -14°C° 0 mm 1 mps 759 mmHg 85%
16:00 -15°C° 0 mm 1 mps 759 mmHg 87%
17:00 -15°C° 0 mm 1 mps 759 mmHg 87%
18:00 -15°C° 0 mm 0 mps 759 mmHg 87%
19:00 -16°C° 0 mm 0 mps 759 mmHg 87%
20:00 -16°C° 0 mm 0 mps 759 mmHg 86%
21:00 -16°C° 0 mm 0 mps 759 mmHg 86%
22:00 -16°C° 0 mm 0 mps 759 mmHg 86%
23:00 -16°C° 0 mm 0 mps 759 mmHg 86%

Tomorrow, 18 January, Monday

Time Temperature Precipitation Wind Pressure Humidity
00:00 -16°C° 0 mm 1 mps 759 mmHg 86%
01:00 -16°C° 0 mm 1 mps 759 mmHg 86%
02:00 -16°C° 0 mm 1 mps 759 mmHg 87%
03:00 -16°C° 0 mm 1 mps 759 mmHg 88%
04:00 -16°C° 0 mm 1 mps 758 mmHg 88%
05:00 -16°C° 0 mm 1 mps 758 mmHg 88%
06:00 -16°C° 0 mm 1 mps 758 mmHg 87%
07:00 -16°C° 0 mm 1 mps 758 mmHg 87%
08:00 -15°C° 0 mm 1 mps 758 mmHg 88%
09:00 -16°C° 0 mm 2 mps 758 mmHg 89%
10:00 -15°C° 0 mm 2 mps 758 mmHg 90%
11:00 -14°C° 0 mm 2 mps 758 mmHg 90%
12:00 -14°C° 0 mm 2 mps 758 mmHg 90%
13:00 -13°C° 0 mm 2 mps 757 mmHg 90%
14:00 -13°C° 0 mm 2 mps 757 mmHg 91%
15:00 -14°C° 0 mm 2 mps 757 mmHg 92%
16:00 -14°C° 0 mm 2 mps 756 mmHg 93%
17:00 -14°C° 0 mm 2 mps 756 mmHg 93%
18:00 -15°C° 0 mm 3 mps 756 mmHg 93%
19:00 -15°C° 0 mm 3 mps 755 mmHg 93%
20:00 -14°C° 0 mm 3 mps 755 mmHg 93%
21:00 -14°C° 0 mm 3 mps 755 mmHg 94%
22:00 -13°C° 0 mm 3 mps 754 mmHg 94%
23:00 -14°C° 0.1 mm 4 mps 754 mmHg 94%

Day after tomorrow, 19 January, Tuesday

Time Temperature Precipitation Wind Pressure Humidity
00:00 -12°C° 0.1 mm 4 mps 753 mmHg 94%
01:00 -12°C° 0.1 mm 4 mps 753 mmHg 95%
02:00 -11°C° 0.3 mm 4 mps 752 mmHg 95%
03:00 -10°C° 0.3 mm 4 mps 752 mmHg 95%
04:00 -9°C° 0.3 mm 4 mps 751 mmHg 95%
05:00 -7°C° 0.4 mm 3 mps 751 mmHg 96%
06:00 -5°C° 0.4 mm 3 mps 751 mmHg 97%
07:00 -4°C° 0.4 mm 3 mps 751 mmHg 97%
08:00 -2°C° 0.4 mm 3 mps 750 mmHg 98%
09:00 -2°C° 0.4 mm 3 mps 750 mmHg 98%
10:00 -1°C° 0.4 mm 3 mps 750 mmHg 98%
11:00 -1°C° 0.3 mm 3 mps 750 mmHg 99%
12:00 0°C° 0.3 mm 3 mps 750 mmHg 99%
13:00 0°C° 0.3 mm 3 mps 750 mmHg 99%
14:00 0°C° 0 mm 3 mps 750 mmHg 99%
15:00 0°C° 0 mm 3 mps 749 mmHg 98%
16:00 0°C° 0 mm 3 mps 749 mmHg 98%
17:00 0°C° 0 mm 3 mps 749 mmHg 98%
18:00 -2°C° 0 mm 4 mps 749 mmHg 97%
19:00 -2°C° 0 mm 4 mps 749 mmHg 97%
20:00 -2°C° 0.1 mm 4 mps 749 mmHg 97%
21:00 -2°C° 0.1 mm 4 mps 748 mmHg 97%
22:00 -2°C° 0.1 mm 4 mps 748 mmHg 97%
23:00 -2°C° 0.1 mm 4 mps 748 mmHg 97%

20 January, Wednesday

Time Temperature Precipitation Wind Pressure Humidity
00:00 -2°C° 0.1 mm 4 mps 748 mmHg 97%
01:00 -3°C° 0.1 mm 4 mps 748 mmHg 97%
02:00 -3°C° 0.2 mm 4 mps 747 mmHg 97%
03:00 -3°C° 0.2 mm 4 mps 747 mmHg 97%
04:00 -4°C° 0.2 mm 5 mps 746 mmHg 97%
05:00 -2°C° 0.1 mm 5 mps 746 mmHg 97%
06:00 -2°C° 0.1 mm 5 mps 746 mmHg 97%
07:00 -2°C° 0.1 mm 5 mps 746 mmHg 97%
08:00 -2°C° 0.2 mm 5 mps 746 mmHg 97%
09:00 -1°C° 0.2 mm 4 mps 746 mmHg 98%
10:00 0°C° 0.2 mm 4 mps 746 mmHg 99%
11:00 0°C° 0.2 mm 4 mps 746 mmHg 99%
12:00 0°C° 0.2 mm 5 mps 746 mmHg 99%
13:00 0°C° 0.2 mm 5 mps 746 mmHg 99%
14:00 0°C° 0 mm 5 mps 746 mmHg 99%
15:00 0°C° 0 mm 5 mps 746 mmHg 98%
16:00 -1°C° 0 mm 5 mps 746 mmHg 98%
17:00 0°C° 0.1 mm 5 mps 746 mmHg 97%
18:00 0°C° 0.1 mm 5 mps 746 mmHg 97%
19:00 0°C° 0.1 mm 5 mps 746 mmHg 96%
20:00 -1°C° 0 mm 4 mps 746 mmHg 95%
21:00 -1°C° 0 mm 4 mps 746 mmHg 93%
22:00 -1°C° 0 mm 4 mps 746 mmHg 91%
23:00 -1°C° 0 mm 4 mps 746 mmHg 90%

21 January, Thursday

Time Temperature Precipitation Wind Pressure Humidity
00:00 -1°C° 0 mm 4 mps 746 mmHg 90%
01:00 -1°C° 0 mm 4 mps 746 mmHg 89%
02:00 -1°C° 0 mm 4 mps 746 mmHg 88%
03:00 -2°C° 0 mm 4 mps 746 mmHg 87%
04:00 -2°C° 0 mm 4 mps 746 mmHg 86%
05:00 -2°C° 0 mm 4 mps 746 mmHg 86%
06:00 -2°C° 0 mm 4 mps 746 mmHg 86%
07:00 -2°C° 0 mm 4 mps 746 mmHg 86%
08:00 -2°C° 0 mm 4 mps 745 mmHg 88%
09:00 -1°C° 0 mm 4 mps 745 mmHg 91%
10:00 -1°C° 0 mm 4 mps 745 mmHg 93%
11:00 0°C° 0 mm 4 mps 745 mmHg 95%
12:00 0°C° 0 mm 5 mps 745 mmHg 97%
13:00 0°C° 0 mm 5 mps 745 mmHg 99%
14:00 0°C° 0 mm 5 mps 744 mmHg 97%
15:00 0°C° 0 mm 5 mps 744 mmHg 95%
16:00 -1°C° 0 mm 6 mps 743 mmHg 93%
17:00 -1°C° 0 mm 6 mps 743 mmHg 93%
18:00 0°C° 0 mm 5 mps 743 mmHg 93%
19:00 0°C° 0 mm 5 mps 743 mmHg 93%
20:00 -1°C° 0 mm 5 mps 744 mmHg 92%
21:00 -1°C° 0 mm 5 mps 744 mmHg 92%
22:00 -1°C° 0 mm 5 mps 744 mmHg 92%
23:00 -1°C° 0 mm 5 mps 744 mmHg 92%

22 January, Friday

Time Temperature Precipitation Wind Pressure Humidity
00:00 -2°C° 0 mm 5 mps 744 mmHg 91%
01:00 -2°C° 0 mm 5 mps 744 mmHg 91%
02:00 -2°C° 0 mm 4 mps 744 mmHg 91%
03:00 -1°C° 0 mm 4 mps 744 mmHg 91%
04:00 -1°C° 0 mm 4 mps 744 mmHg 91%
05:00 -1°C° 0 mm 4 mps 744 mmHg 91%
06:00 -1°C° 0 mm 4 mps 743 mmHg 90%
07:00 -1°C° 0 mm 4 mps 743 mmHg 90%
08:00 -1°C° 0 mm 4 mps 743 mmHg 93%
09:00 0°C° 0 mm 4 mps 743 mmHg 96%
10:00 0°C° 0 mm 4 mps 742 mmHg 98%
11:00 0°C° 0 mm 4 mps 742 mmHg 99%
12:00 0°C° 0 mm 4 mps 741 mmHg 99%
13:00 0°C° 0 mm 4 mps 741 mmHg 99%
14:00 0°C° 0.1 mm 4 mps 740 mmHg 99%
15:00 0°C° 0.1 mm 4 mps 740 mmHg 99%
16:00 0°C° 0.1 mm 4 mps 739 mmHg 98%
17:00 0°C° 0.1 mm 4 mps 739 mmHg 98%
18:00 0°C° 0.1 mm 4 mps 738 mmHg 98%
19:00 0°C° 0.1 mm 4 mps 738 mmHg 98%
20:00 +1°C° 0 mm 3 mps 738 mmHg 97%
21:00 0°C° 0 mm 3 mps 738 mmHg 96%
22:00 0°C° 0 mm 3 mps 738 mmHg 95%
23:00 0°C° 0 mm 3 mps 739 mmHg 95%
Show more

We Need Your Consent

Meteoprog and our Service Providers may store and access personal data such as cookies, device identifiers or other similar technologies on your device and process such data to personalise content and ads, as well as provide social media features and to analyse the traffic.

  • Store and/or access information on your device

    Cookies, device identifiers or other information can be stored or accessed on your device for the purposes indicated above.

  • Personalised ads and content, ad and content measurement, audience insights, and products development

    Ads and content can be personalised based on a profile. More data can be added to better personalise ads and content. Ad and content performance can be measured. Insights about the audience who saw the ads and content can be derived. Such data can be used to develop or improve user’s experience, systems and software.

By clicking ‘I Agree’ you will allow the use of indicated cookies, device identifiers, web beacons or other similar technologies. Your settings can be changed in the browser on your device.

For certain purposes, legitimate interests may be relied on, rather than consent. You can read more about this in our Privacy and Cookie Policy.